"startDT [UTC]","vpos","CH4 [ppm]","stdev(CH4) [ppm]","CO2 [ppm]","stdev(CO2) [ppm]","H2O_reported [%]","stdev(H2O_reported)","CavityPressure [torr]","CavityTemp [C]","OutletValve","CH4_dry [ppm]","CO2_dry [ppm]","DasTemp [C]","EtalonTemp [C]","WarmBoxTemp [C]","MPVPosition","T_ECpre [C]","T_EC1 [C]","T_EC2 [C]","p_inlet [hPa]","p_in [hPa]","p_out [hPa]","T_inlet [C]","RH_inlet [%]","dwpt_inlet [C]","T_vent [C]","RH_vent [%]","dwpt_vent [C]","flow_vent [l min-1]","flow_inlet [l min-1]","dwpt_sample [C]","T_room [C]"
2015-06-17 00:00:00,3.0,1.87443,0.00383,398.235,0.740,0.1878,0.2598,139.766,45.000,31219.53721,1.87897,399.336,32.245,45.068,45.000,0.00,0.10,-272.72,-272.78,-6,480,-4,22.5,19.0,-2.3,22.3,19.5,-2.1,5.73,1.84,-2.9,26.8
2015-06-17 00:01:00,3.0,1.87623,0.00049,397.000,0.075,0.0314,0.0018,139.997,45.000,31005.98483,1.87679,397.156,32.248,45.068,45.000,0.00,0.10,-272.73,-272.78,-5,481,-4,22.5,19.1,-2.2,22.3,19.5,-2.1,5.73,1.88,-2.9,26.7
2015-06-17 00:02:00,3.0,1.87641,0.00033,397.125,0.089,0.0288,0.0025,139.998,45.000,30955.98925,1.87689,397.255,32.247,45.068,45.000,0.00,0.10,-272.73,-272.79,-5,482,-4,22.5,19.3,-2.0,22.3,19.9,-1.9,5.73,1.91,-2.9,26.7
2015-06-17 00:03:00,3.0,1.87622,0.00044,397.382,0.047,0.0244,0.0027,139.993,45.000,30910.58663,1.87667,397.494,32.245,45.068,45.000,0.00,0.10,-272.73,-272.78,-6,482,-4,22.5,19.4,-2.0,22.3,20.0,-1.8,5.73,1.95,-2.9,26.8
2015-06-17 00:04:00,3.0,1.87646,0.00027,397.468,0.038,0.0196,0.0024,140.001,45.000,30872.71356,1.87685,397.559,32.248,45.068,45.000,0.00,0.10,-272.72,-272.78,-6,482,-4,22.5,19.4,-1.9,22.3,20.0,-1.8,5.73,1.96,-2.9,26.7
2015-06-17 00:05:00,3.0,1.87656,0.00035,397.516,0.019,0.0151,0.0022,139.996,45.000,30841.35457,1.87684,397.590,32.250,45.068,45.000,0.00,0.09,-272.73,-272.78,-6,482,-4,22.5,19.7,-1.8,22.3,20.2,-1.6,5.73,1.95,-2.9,26.8
2015-06-17 00:06:00,3.0,1.87667,0.00027,397.531,0.023,0.0127,0.0017,139.996,45.000,30817.86995,1.87689,397.592,32.242,45.068,45.000,0.00,0.10,-272.73,-272.79,-6,482,-4,22.5,19.1,-2.2,22.3,19.8,-1.9,5.73,1.93,-2.9,26.8
2015-06-17 00:07:00,3.0,1.87686,0.00029,397.536,0.025,0.0094,0.0014,139.998,45.000,30797.95528,1.87705,397.582,32.238,45.068,45.000,0.00,0.10,-272.72,-272.78,-5,482,-4,22.5,19.0,-2.2,22.3,19.5,-2.1,5.73,1.88,-2.9,26.8
2015-06-17 00:08:00,3.0,1.87669,0.00028,397.557,0.023,0.0087,0.0020,139.996,45.000,30782.14795,1.87684,397.597,32.221,45.068,45.000,0.00,0.10,-272.73,-272.79,-5,483,-4,22.6,19.6,-1.8,22.3,20.1,-1.7,5.73,1.88,-2.9,26.7
2015-06-17 00:09:00,3.0,1.87649,0.00035,397.530,0.021,0.0066,0.0017,140.000,45.000,30772.75016,1.87663,397.562,32.208,45.068,45.000,0.00,0.10,-272.73,-272.79,-6,483,-4,22.6,19.3,-2.0,22.3,20.0,-1.7,5.73,1.89,-2.9,26.8
2015-06-17 00:10:00,3.0,1.87667,0.00032,397.535,0.027,0.0064,0.0024,140.001,45.000,30762.93264,1.87680,397.567,32.225,45.069,45.000,0.00,0.10,-272.73,-272.79,-6,484,-4,22.6,18.9,-2.3,22.3,19.5,-2.1,5.73,1.92,-2.9,26.8
2015-06-17 00:11:00,3.0,1.87641,0.00032,397.552,0.041,0.0057,0.0018,139.998,45.000,30755.15744,1.87650,397.577,32.232,45.069,45.000,0.00,0.10,-272.73,-272.79,-6,484,-4,22.6,19.0,-2.2,22.3,19.5,-2.1,5.73,1.95,-2.9,26.8
2015-06-17 00:12:00,3.0,1.87683,0.00031,397.549,0.020,0.0057,0.0026,140.001,45.000,30749.55531,1.87695,397.577,32.213,45.068,45.000,0.00,0.10,-272.73,-272.79,-5,485,-4,22.6,19.1,-2.1,22.3,19.6,-2.0,5.73,1.96,-2.9,26.8
2015-06-17 00:13:00,3.0,1.87658,0.00039,397.552,0.031,0.0044,0.0030,139.996,45.000,30743.89157,1.87665,397.574,32.204,45.068,45.000,0.00,0.10,-272.73,-272.78,-5,485,-4,22.6,19.3,-2.0,22.3,19.8,-1.9,5.73,1.94,-2.9,26.7
2015-06-17 00:14:00,3.0,1.87671,0.00028,397.560,0.029,0.0034,0.0017,139.999,45.000,30737.57184,1.87676,397.577,32.203,45.068,45.000,0.00,0.10,-272.73,-272.78,-6,485,-4,22.6,19.1,-2.1,22.4,19.7,-1.9,5.73,1.92,-2.8,26.8
2015-06-17 00:15:00,3.0,1.87654,0.00040,397.547,0.035,0.0038,0.0017,140.002,45.000,30734.53157,1.87658,397.566,32.202,45.068,45.000,0.00,0.10,-272.73,-272.79,-6,485,-4,22.6,19.3,-2.0,22.4,19.8,-1.8,5.73,1.88,-2.8,26.8
2015-06-17 00:16:00,3.0,1.87659,0.00033,397.558,0.034,0.0037,0.0017,139.998,45.000,30732.96682,1.87668,397.575,32.196,45.068,45.000,0.00,0.10,-272.72,-272.79,-6,486,-4,22.6,19.3,-2.0,22.4,19.8,-1.8,5.73,1.87,-2.9,26.8
2015-06-17 00:17:00,3.0,1.87659,0.00032,397.563,0.023,0.0043,0.0029,140.004,45.000,30733.52742,1.87668,397.584,32.195,45.068,45.000,0.00,0.10,-272.72,-272.78,-6,487,-4,22.6,19.5,-1.8,22.4,20.0,-1.7,5.73,1.90,-2.8,26.8
2015-06-17 00:18:00,3.0,1.87655,0.00021,397.579,0.023,0.0026,0.0015,139.999,45.000,30732.15265,1.87660,397.591,32.189,45.069,45.000,0.00,0.10,-272.73,-272.79,-5,487,-4,22.6,20.1,-1.4,22.4,20.6,-1.3,5.73,1.92,-2.9,26.8
2015-06-17 00:19:00,3.0,1.87673,0.00029,397.570,0.031,0.0032,0.0015,140.001,45.000,30731.09407,1.87679,397.586,32.219,45.069,45.000,0.00,0.10,-272.73,-272.79,-6,487,-4,22.6,19.6,-1.7,22.4,20.3,-1.5,5.73,1.95,-2.8,26.8
2015-06-17 00:20:00,0.0,1.88570,0.00326,399.210,0.408,0.5651,0.2339,140.162,45.000,33737.18092,1.89533,401.783,32.235,45.068,45.000,0.00,0.10,-272.72,-272.78,-6,981,-4,22.6,19.4,-1.9,22.4,20.0,-1.7,5.73,2.02,-2.8,26.8
2015-06-17 00:21:00,0.0,1.88510,0.00032,399.152,0.023,0.6884,0.0022,140.009,45.000,33936.70270,1.89814,402.528,32.230,45.068,45.000,0.00,0.10,-272.73,-272.78,-7,982,-4,22.7,19.6,-1.8,22.4,20.1,-1.6,5.73,1.97,-2.8,26.8
2015-06-17 00:22:00,0.0,1.88460,0.00032,399.170,0.027,0.6885,0.0034,140.003,45.000,33996.04057,1.89770,402.543,32.216,45.068,45.000,0.00,0.10,-272.73,-272.79,-6,982,-3,22.7,19.5,-1.8,22.4,20.0,-1.6,5.73,1.96,-2.8,26.8
2015-06-17 00:23:00,0.0,1.88438,0.00047,399.154,0.029,0.6957,0.0019,140.002,45.000,34041.26925,1.89756,402.568,32.207,45.068,45.000,0.00,0.10,-272.73,-272.79,-6,982,-4,22.7,19.6,-1.7,22.4,20.1,-1.6,5.73,1.95,-2.8,26.8
2015-06-17 00:24:00,0.0,1.88422,0.00031,399.148,0.020,0.6925,0.0030,140.000,45.000,34078.27089,1.89736,402.545,32.215,45.068,45.000,0.00,0.10,-272.72,-272.79,-6,982,-4,22.7,19.5,-1.8,22.4,20.1,-1.6,5.73,1.93,-2.8,26.8
2015-06-17 00:25:00,0.0,1.88422,0.00043,399.096,0.025,0.6995,0.0025,140.000,45.000,34108.10550,1.89749,402.529,32.206,45.068,45.000,0.00,0.10,-272.73,-272.79,-6,983,-4,22.6,19.7,-1.7,22.4,20.2,-1.5,5.73,1.92,-2.8,26.8
2015-06-17 00:26:00,0.0,1.88400,0.00048,399.061,0.042,0.7034,0.0020,140.000,45.000,34135.81846,1.89730,402.511,32.227,45.068,45.000,0.00,0.10,-272.72,-272.79,-6,983,-4,22.7,19.8,-1.6,22.4,20.3,-1.5,5.73,1.92,-2.8,26.8
2015-06-17 00:27:00,0.0,1.88367,0.00027,398.981,0.023,0.7230,0.0063,140.006,45.000,34161.40060,1.89742,402.528,32.224,45.068,45.000,0.00,0.10,-272.73,-272.78,-6,983,-4,22.7,20.3,-1.3,22.4,20.8,-1.2,5.73,1.92,-2.8,26.8
2015-06-17 00:28:00,0.0,1.88385,0.00044,399.091,0.046,0.6972,0.0100,140.001,45.000,34178.13120,1.89704,402.512,32.227,45.068,45.000,0.00,0.10,-272.73,-272.78,-6,983,-4,22.7,19.6,-1.7,22.4,20.3,-1.4,5.73,1.93,-2.8,26.8
2015-06-17 00:29:00,0.0,1.88402,0.00022,399.145,0.041,0.6911,0.0045,139.998,45.000,34190.97843,1.89710,402.538,32.239,45.068,45.000,0.00,0.10,-272.73,-272.79,-6,983,-4,22.7,19.4,-1.9,22.4,19.9,-1.7,5.73,1.93,-2.8,26.8
2015-06-17 00:30:00,0.0,1.88379,0.00037,399.134,0.034,0.6921,0.0019,139.998,45.000,34204.21230,1.89694,402.526,32.234,45.068,45.000,0.00,0.10,-272.72,-272.78,-6,983,-4,22.7,19.4,-1.9,22.4,20.0,-1.7,5.73,1.95,-2.8,26.8
2015-06-17 00:31:00,0.0,1.88380,0.00041,399.059,0.044,0.7025,0.0066,139.998,45.000,34212.70359,1.89711,402.504,32.225,45.068,45.000,0.00,0.10,-272.72,-272.79,-6,983,-4,22.7,19.7,-1.6,22.4,20.2,-1.5,5.73,1.96,-2.8,26.8
2015-06-17 00:32:00,0.0,1.88419,0.00051,399.079,0.038,0.7051,0.0034,139.997,45.000,34221.11302,1.89752,402.542,32.214,45.068,45.000,0.00,0.10,-272.73,-272.78,-6,983,-4,22.7,19.8,-1.6,22.4,20.4,-1.4,5.73,1.97,-2.8,26.8
2015-06-17 00:33:00,0.0,1.88372,0.00041,399.009,0.036,0.7147,0.0030,139.999,45.000,34228.22733,1.89729,402.512,32.236,45.068,45.000,0.00,0.10,-272.72,-272.79,-6,983,-4,22.7,20.0,-1.4,22.4,20.6,-1.3,5.73,1.97,-2.8,26.8
2015-06-17 00:34:00,0.0,1.88400,0.00045,399.081,0.032,0.7053,0.0080,140.001,45.000,34236.86900,1.89733,402.543,32.232,45.068,45.000,0.00,0.10,-272.72,-272.78,-6,983,-4,22.7,19.7,-1.6,22.4,20.4,-1.4,5.73,1.96,-2.8,26.8
2015-06-17 00:35:00,0.0,1.88390,0.00030,399.121,0.044,0.6961,0.0028,140.000,45.000,34241.54738,1.89711,402.534,32.223,45.068,45.000,0.00,0.10,-272.73,-272.79,-6,983,-4,22.7,19.5,-1.8,22.4,20.1,-1.6,5.73,1.95,-2.8,26.8
2015-06-17 00:36:00,0.0,1.88419,0.00045,399.152,0.029,0.6936,0.0039,139.996,45.000,34243.66998,1.89730,402.555,32.226,45.068,45.000,0.00,0.10,-272.73,-272.79,-6,983,-4,22.7,19.4,-1.9,22.4,20.0,-1.7,5.73,1.95,-2.8,26.9
2015-06-17 00:37:00,0.0,1.88421,0.00037,399.121,0.050,0.6973,0.0035,140.001,45.000,34250.38161,1.89746,402.544,32.234,45.068,45.000,0.00,0.10,-272.72,-272.79,-6,983,-4,22.7,19.5,-1.8,22.4,20.0,-1.6,5.73,1.93,-2.8,26.8
2015-06-17 00:38:00,0.0,1.88433,0.00047,399.097,0.049,0.7046,0.0044,140.002,45.000,34251.89329,1.89765,402.552,32.220,45.068,45.000,0.00,0.10,-272.73,-272.79,-6,983,-4,22.7,19.7,-1.7,22.4,20.2,-1.5,5.73,1.92,-2.8,26.8
2015-06-17 00:39:00,0.0,1.88451,0.00030,399.150,0.048,0.6895,0.0052,140.002,45.000,34258.92953,1.89761,402.533,32.237,45.068,45.000,0.00,0.10,-272.73,-272.79,-6,983,-4,22.7,19.3,-2.0,22.4,19.9,-1.7,5.73,1.91,-2.8,26.8
2015-06-17 00:40:00,0.0,1.88458,0.00028,399.195,0.024,0.6847,0.0028,139.997,45.000,34262.93145,1.89752,402.553,32.232,45.068,45.000,0.00,0.10,-272.72,-272.78,-6,983,-4,22.7,19.1,-2.1,22.4,19.7,-1.9,5.73,1.92,-2.8,26.8
2015-06-17 00:41:00,0.0,1.88420,0.00027,399.113,0.042,0.6933,0.0039,140.000,45.000,34265.52756,1.89738,402.514,32.237,45.068,45.000,0.00,0.10,-272.73,-272.78,-6,983,-4,22.7,19.4,-1.9,22.4,19.9,-1.7,5.73,1.92,-2.8,26.8
2015-06-17 00:42:00,0.0,1.88447,0.00038,399.093,0.031,0.6976,0.0029,139.998,45.000,34265.39547,1.89765,402.516,32.232,45.068,45.000,0.00,0.10,-272.73,-272.79,-6,983,-4,22.7,19.5,-1.8,22.4,20.1,-1.6,5.73,1.93,-2.8,26.8
2015-06-17 00:43:00,0.0,1.88431,0.00028,399.108,0.045,0.6965,0.0019,140.000,45.000,34269.44837,1.89751,402.522,32.238,45.068,45.000,0.00,0.10,-272.72,-272.79,-6,983,-4,22.7,19.5,-1.8,22.4,20.0,-1.6,5.73,1.95,-2.8,26.8
2015-06-17 00:44:00,0.0,1.88470,0.00048,399.200,0.035,0.6869,0.0053,140.000,45.000,34269.15864,1.89771,402.571,32.250,45.068,45.000,0.00,0.10,-272.72,-272.78,-6,983,-4,22.7,19.1,-2.1,22.4,19.8,-1.8,5.73,1.96,-2.8,26.8
2015-06-17 00:45:00,0.0,1.88447,0.00027,399.196,0.031,0.6804,0.0039,139.999,45.000,34270.15849,1.89737,402.533,32.250,45.068,45.000,0.00,0.10,-272.73,-272.78,-6,983,-4,22.7,19.0,-2.1,22.4,19.5,-1.9,5.73,1.97,-2.8,26.8
2015-06-17 00:46:00,0.0,1.88429,0.00032,399.140,0.035,0.6874,0.0020,139.999,45.000,34273.70005,1.89731,402.514,32.250,45.068,45.000,0.00,0.10,-272.73,-272.78,-6,983,-4,22.7,19.2,-2.0,22.4,19.7,-1.8,5.73,1.97,-2.8,26.8
2015-06-17 00:47:00,0.0,1.88428,0.00038,399.110,0.030,0.6974,0.0053,140.000,45.000,34273.30991,1.89756,402.528,32.251,45.068,45.000,0.00,0.10,-272.72,-272.78,-6,983,-4,22.7,19.4,-1.8,22.5,19.9,-1.7,5.73,1.96,-2.8,26.9
2015-06-17 00:48:00,0.0,1.88414,0.00034,399.056,0.048,0.7033,0.0065,139.999,45.000,34272.51929,1.89738,402.506,32.250,45.068,45.000,0.00,0.10,-272.73,-272.79,-6,984,-4,22.7,19.6,-1.7,22.5,20.2,-1.5,5.73,1.96,-2.8,26.8
2015-06-17 00:49:00,0.0,1.88470,0.00034,399.144,0.032,0.6870,0.0024,140.001,45.000,34274.29068,1.89772,402.514,32.260,45.068,45.000,0.00,0.10,-272.73,-272.79,-6,983,-4,22.7,19.1,-2.0,22.4,19.7,-1.8,5.73,1.94,-2.8,26.8
2015-06-17 00:50:00,0.0,1.88473,0.00034,399.172,0.032,0.6816,0.0041,140.000,45.000,34275.27558,1.89764,402.515,32.262,45.068,45.000,0.00,0.10,-272.72,-272.78,-6,983,-4,22.7,19.0,-2.2,22.5,19.6,-1.9,5.73,1.93,-2.8,26.8
2015-06-17 00:51:00,0.0,1.88443,0.00043,399.125,0.048,0.6901,0.0040,140.001,45.000,34275.56631,1.89750,402.509,32.259,45.068,45.000,0.00,0.10,-272.72,-272.79,-6,983,-4,22.7,19.3,-2.0,22.4,19.7,-1.8,5.73,1.91,-2.8,26.8
2015-06-17 00:52:00,0.0,1.88455,0.00039,399.126,0.047,0.6936,0.0039,140.003,45.000,34275.45999,1.89772,402.528,32.256,45.068,45.000,0.00,0.10,-272.73,-272.79,-6,983,-4,22.7,19.3,-1.9,22.4,19.9,-1.7,5.73,1.92,-2.8,26.8
2015-06-17 00:53:00,0.0,1.88451,0.00036,399.159,0.034,0.6874,0.0025,139.996,45.000,34272.35935,1.89752,402.527,32.251,45.068,45.000,0.00,0.10,-272.73,-272.78,-6,983,-4,22.7,19.2,-2.0,22.4,19.7,-1.8,5.73,1.92,-2.8,26.8
2015-06-17 00:54:00,0.0,1.88465,0.00034,399.185,0.039,0.6871,0.0027,139.998,45.000,34272.35683,1.89766,402.557,32.250,45.068,45.000,0.00,0.10,-272.72,-272.78,-6,983,-4,22.7,19.1,-2.1,22.5,19.7,-1.8,5.73,1.93,-2.8,26.8
2015-06-17 00:55:00,0.0,1.88458,0.00030,399.147,0.042,0.6858,0.0037,140.003,45.000,34274.93903,1.89761,402.510,32.250,45.068,45.000,0.00,0.10,-272.73,-272.79,-6,983,-4,22.7,19.1,-2.1,22.4,19.6,-1.9,5.73,1.93,-2.8,26.8
2015-06-17 00:56:00,0.0,1.88466,0.00040,399.099,0.045,0.6947,0.0037,140.001,45.000,34274.93342,1.89778,402.508,32.250,45.069,45.000,0.00,0.10,-272.73,-272.79,-6,983,-4,22.7,19.4,-1.9,22.5,19.9,-1.7,5.73,1.95,-2.8,26.8
2015-06-17 00:57:00,0.0,1.88411,0.00063,398.967,0.081,0.7080,0.0117,140.001,45.000,34275.10773,1.89756,402.439,32.250,45.069,45.000,0.00,0.10,-272.72,-272.78,-6,983,-4,22.7,19.8,-1.6,22.5,20.2,-1.5,5.73,1.96,-2.8,26.8
2015-06-17 00:58:00,0.0,1.88402,0.00024,399.008,0.089,0.7198,0.0117,139.998,45.000,34274.79539,1.89767,402.537,32.250,45.068,45.000,0.00,0.10,-272.72,-272.79,-7,983,-4,22.7,20.1,-1.4,22.4,20.7,-1.2,5.73,1.97,-2.8,26.8
2015-06-17 00:59:00,0.0,1.88461,0.00040,399.178,0.048,0.6906,0.0062,139.999,45.000,34277.82208,1.89767,402.568,32.253,45.068,45.000,0.00,0.09,-272.73,-272.79,-6,983,-4,22.7,19.2,-2.0,22.4,19.9,-1.7,5.73,1.97,-2.8,26.8
2015-06-17 01:00:00,0.0,1.88447,0.00030,399.170,0.034,0.6882,0.0040,140.000,45.000,34278.79189,1.89755,402.546,32.250,45.068,45.000,0.00,0.10,-272.73,-272.78,-6,983,-4,22.7,19.2,-2.0,22.4,19.7,-1.8,5.73,1.96,-2.7,26.8
2015-06-17 01:01:00,0.0,1.88416,0.00033,399.125,0.033,0.6900,0.0045,139.999,45.000,34278.95278,1.89722,402.509,32.252,45.068,45.000,0.00,0.10,-272.72,-272.78,-6,983,-4,22.7,19.2,-2.0,22.4,19.7,-1.8,5.73,1.95,-2.7,26.9
2015-06-17 01:02:00,0.0,1.88436,0.00047,399.078,0.044,0.7022,0.0075,139.999,45.000,34278.36641,1.89767,402.523,32.251,45.068,45.000,0.00,0.10,-272.73,-272.79,-6,983,-4,22.7,19.6,-1.7,22.4,20.1,-1.6,5.73,1.94,-2.8,26.8
2015-06-17 01:03:00,0.0,1.88424,0.00035,399.044,0.044,0.7021,0.0070,140.001,45.000,34278.03162,1.89755,402.488,32.251,45.068,45.000,0.00,0.10,-272.73,-272.79,-6,983,-4,22.7,19.6,-1.7,22.4,20.0,-1.6,5.73,1.93,-2.7,26.9
2015-06-17 01:04:00,0.0,1.88423,0.00033,399.043,0.033,0.7043,0.0030,140.001,45.000,34278.37995,1.89757,402.499,32.255,45.068,45.000,0.00,0.10,-272.72,-272.78,-6,983,-4,22.7,19.6,-1.7,22.4,20.2,-1.5,5.73,1.92,-2.8,26.9
2015-06-17 01:05:00,0.0,1.88454,0.00044,399.119,0.038,0.6926,0.0018,140.000,45.000,34279.50319,1.89767,402.517,32.261,45.068,45.000,0.00,0.10,-272.73,-272.79,-6,984,-4,22.7,19.3,-1.9,22.5,19.8,-1.7,5.73,1.91,-2.7,26.9
2015-06-17 01:06:00,0.0,1.88453,0.00038,399.082,0.038,0.7017,0.0028,140.000,45.000,34278.68383,1.89784,402.523,32.286,45.068,45.000,0.00,0.10,-272.73,-272.79,-6,983,-4,22.7,19.5,-1.8,22.5,20.0,-1.6,5.73,1.91,-2.8,26.9
2015-06-17 01:07:00,0.0,1.88406,0.00023,399.014,0.025,0.7024,0.0030,139.999,45.000,34280.01847,1.89736,402.462,32.308,45.068,45.000,0.00,0.10,-272.73,-272.78,-6,983,-4,22.7,19.6,-1.7,22.5,20.1,-1.5,5.73,1.92,-2.8,26.9
2015-06-17 01:08:00,0.0,1.88402,0.00049,398.959,0.042,0.7164,0.0056,140.003,45.000,34279.34028,1.89761,402.475,32.305,45.068,45.000,0.00,0.10,-272.73,-272.78,-6,984,-4,22.7,20.0,-1.5,22.5,20.4,-1.3,5.73,1.94,-2.7,26.9
2015-06-17 01:09:00,0.0,1.88396,0.00031,398.985,0.024,0.7133,0.0030,140.002,45.000,34278.76387,1.89749,402.483,32.310,45.068,45.000,0.00,0.10,-272.73,-272.79,-6,983,-3,22.7,19.9,-1.5,22.5,20.5,-1.3,5.73,1.94,-2.7,26.9
2015-06-17 01:10:00,0.0,1.88412,0.00035,399.056,0.035,0.7055,0.0053,140.000,45.000,34278.00222,1.89748,402.517,32.305,45.068,45.000,0.00,0.10,-272.73,-272.79,-6,983,-4,22.7,19.7,-1.7,22.5,20.3,-1.4,5.73,1.95,-2.7,26.8
2015-06-17 01:11:00,0.0,1.88397,0.00037,399.013,0.049,0.7099,0.0043,139.999,45.000,34278.93490,1.89743,402.495,32.306,45.068,45.000,0.00,0.10,-272.72,-272.78,-6,984,-5,22.7,19.8,-1.6,22.5,20.3,-1.4,5.73,1.97,-2.7,26.8
2015-06-17 01:12:00,0.0,1.88402,0.00036,399.032,0.023,0.7048,0.0038,139.999,45.000,34280.10560,1.89738,402.492,32.307,45.068,45.000,0.00,0.10,-272.73,-272.79,-7,983,-4,22.7,19.6,-1.7,22.5,20.2,-1.5,5.73,1.97,-2.7,26.9
2015-06-17 01:13:00,0.0,1.88430,0.00029,399.035,0.021,0.7010,0.0029,139.996,45.000,34278.91989,1.89760,402.472,32.311,45.068,45.000,0.00,0.10,-272.73,-272.79,-6,983,-4,22.7,19.5,-1.8,22.5,20.1,-1.6,5.73,1.97,-2.7,26.9
2015-06-17 01:14:00,0.0,1.88431,0.00027,399.051,0.040,0.6980,0.0028,139.999,45.000,34279.79741,1.89751,402.475,32.305,45.068,45.000,0.00,0.10,-272.72,-272.78,-6,983,-4,22.7,19.4,-1.8,22.5,20.0,-1.7,5.73,1.96,-2.8,26.8
2015-06-17 01:15:00,0.0,1.88403,0.00032,398.992,0.043,0.7135,0.0076,140.001,45.000,34280.48803,1.89756,402.492,32.307,45.068,45.000,0.00,0.10,-272.72,-272.78,-6,983,-4,22.7,19.9,-1.5,22.5,20.3,-1.4,5.73,1.94,-2.7,26.9
2015-06-17 01:16:00,0.0,1.88385,0.00040,398.999,0.057,0.7152,0.0064,140.004,45.000,34281.34071,1.89737,402.508,32.309,45.068,45.000,0.00,0.10,-272.73,-272.80,-6,984,-4,22.7,19.9,-1.5,22.5,20.5,-1.3,5.73,1.93,-2.7,26.9
2015-06-17 01:17:00,0.0,1.88443,0.00043,399.122,0.021,0.6975,0.0032,139.998,45.000,34278.10454,1.89768,402.545,32.313,45.068,45.000,0.00,0.10,-272.72,-272.79,-6,983,-4,22.7,19.4,-1.9,22.5,20.0,-1.6,5.73,1.92,-2.7,26.8
2015-06-17 01:18:00,0.0,1.88469,0.00032,399.185,0.043,0.6886,0.0030,139.999,45.000,34278.30651,1.89771,402.563,32.313,45.068,45.000,0.00,0.10,-272.72,-272.78,-6,984,-4,22.7,19.1,-2.1,22.5,19.7,-1.8,5.73,1.92,-2.7,26.9
2015-06-17 01:19:00,0.0,1.88469,0.00049,399.138,0.048,0.6879,0.0045,140.000,45.000,34279.23154,1.89773,402.512,32.313,45.068,45.000,0.00,0.10,-272.73,-272.79,-6,984,-4,22.7,19.1,-2.0,22.5,19.6,-1.9,5.73,1.92,-2.7,26.9
2015-06-17 01:20:00,0.0,1.88446,0.00032,399.053,0.021,0.7017,0.0020,140.000,45.000,34278.03005,1.89779,402.495,32.313,45.068,45.000,0.00,0.10,-272.73,-272.79,-7,983,-4,22.7,19.5,-1.8,22.5,20.0,-1.6,5.73,1.92,-2.7,26.9
2015-06-17 01:21:00,0.0,1.88401,0.00033,398.939,0.066,0.7197,0.0076,140.002,45.000,34280.66692,1.89767,402.472,32.317,45.068,45.000,0.00,0.10,-272.72,-272.78,-7,984,-4,22.7,20.1,-1.4,22.5,20.4,-1.3,5.73,1.93,-2.7,26.8
2015-06-17 01:22:00,0.0,1.88386,0.00043,398.924,0.061,0.7276,0.0048,139.998,45.000,34280.98686,1.89768,402.492,32.312,45.068,45.000,0.00,0.10,-272.73,-272.79,-6,983,-4,22.7,20.2,-1.3,22.5,20.9,-1.0,5.73,1.94,-2.7,26.9
2015-06-17 01:23:00,0.0,1.88437,0.00023,399.093,0.027,0.6989,0.0051,140.000,45.000,34281.22714,1.89760,402.524,32.314,45.068,45.000,0.00,0.10,-272.73,-272.79,-6,983,-4,22.7,19.4,-1.8,22.5,20.1,-1.5,5.73,1.96,-2.7,26.8
2015-06-17 01:24:00,0.0,1.88472,0.00036,399.107,0.031,0.6910,0.0020,140.003,45.000,34280.00640,1.89775,402.494,32.313,45.068,45.000,0.00,0.10,-272.72,-272.78,-6,984,-4,22.7,19.2,-2.0,22.5,19.8,-1.8,5.73,1.96,-2.7,26.9
2015-06-17 01:25:00,0.0,1.88485,0.00051,399.179,0.067,0.6914,0.0048,140.003,45.000,34279.35553,1.89799,402.571,32.313,45.068,45.000,0.00,0.10,-272.72,-272.78,-6,984,-4,22.7,19.2,-2.0,22.5,19.8,-1.8,5.73,1.97,-2.7,26.9
2015-06-17 01:26:00,0.0,1.88489,0.00046,399.137,0.080,0.6992,0.0153,140.003,45.000,34279.29004,1.89815,402.565,32.310,45.068,45.000,0.00,0.09,-272.73,-272.79,-6,983,-4,22.7,19.5,-1.8,22.5,19.9,-1.7,5.73,1.96,-2.7,26.9
2015-06-17 01:27:00,0.0,1.88459,0.00040,399.161,0.052,0.6989,0.0092,140.000,45.000,34278.46090,1.89784,402.593,32.297,45.068,45.000,0.00,0.10,-272.72,-272.78,-7,984,-4,22.7,19.4,-1.8,22.5,20.1,-1.5,5.73,1.95,-2.7,26.9
2015-06-17 01:28:00,0.0,1.88452,0.00035,399.066,0.065,0.7035,0.0078,139.997,45.000,34277.43907,1.89785,402.515,32.301,45.068,45.000,0.00,0.10,-272.72,-272.78,-7,984,-4,22.7,19.5,-1.7,22.5,20.0,-1.6,5.73,1.94,-2.7,26.8
2015-06-17 01:29:00,0.0,1.88466,0.00060,399.098,0.041,0.7038,0.0073,140.002,45.000,34277.30625,1.89797,402.552,32.302,45.068,45.000,0.00,0.10,-272.73,-272.79,-6,983,-4,22.7,19.5,-1.8,22.5,20.2,-1.5,5.73,1.93,-2.7,26.8
2015-06-17 01:30:00,0.0,1.88464,0.00035,399.168,0.030,0.6957,0.0034,139.999,45.000,34279.59256,1.89788,402.580,32.306,45.068,45.000,0.00,0.10,-272.72,-272.79,-6,983,-4,22.7,19.3,-1.9,22.5,19.9,-1.7,5.73,1.93,-2.7,26.9
2015-06-17 01:31:00,0.0,1.88432,0.00032,399.166,0.029,0.6911,0.0026,139.999,45.000,34281.92846,1.89746,402.555,32.297,45.068,45.000,0.00,0.10,-272.72,-272.78,-6,984,-4,22.7,19.2,-2.0,22.5,19.8,-1.8,5.73,1.92,-2.7,26.9
2015-06-17 01:32:00,0.0,1.88449,0.00038,399.197,0.037,0.6892,0.0023,139.999,45.000,34281.81137,1.89753,402.578,32.302,45.068,45.000,0.00,0.10,-272.72,-272.79,-6,984,-4,22.7,19.1,-2.1,22.5,19.7,-1.8,5.73,1.91,-2.7,26.9
2015-06-17 01:33:00,0.0,1.88410,0.00026,399.164,0.041,0.6956,0.0048,139.998,45.000,34283.43721,1.89728,402.574,32.303,45.068,45.000,0.00,0.10,-272.73,-272.79,-6,984,-4,22.7,19.4,-1.9,22.5,19.8,-1.7,5.73,1.92,-2.7,26.9
2015-06-17 01:34:00,0.0,1.88434,0.00047,399.154,0.033,0.7006,0.0027,139.998,45.000,34282.90507,1.89760,402.591,32.307,45.068,45.000,0.00,0.10,-272.72,-272.79,-6,984,-4,22.7,19.5,-1.8,22.5,20.0,-1.6,5.73,1.92,-2.7,26.9
2015-06-17 01:35:00,0.0,1.88438,0.00027,399.216,0.024,0.6857,0.0046,140.001,45.000,34284.17687,1.89737,402.582,32.310,45.068,45.000,0.00,0.10,-272.72,-272.78,-7,984,-4,22.7,19.1,-2.1,22.5,19.7,-1.8,5.73,1.94,-2.7,26.9
2015-06-17 01:36:00,0.0,1.88464,0.00027,399.261,0.026,0.6806,0.0034,139.996,45.000,34281.72467,1.89754,402.599,32.313,45.068,45.000,0.00,0.10,-272.73,-272.79,-6,983,-4,22.7,18.9,-2.2,22.5,19.4,-2.0,5.73,1.95,-2.7,26.9
2015-06-17 01:37:00,0.0,1.88479,0.00024,399.260,0.031,0.6825,0.0053,140.000,45.000,34283.29784,1.89769,402.605,32.313,45.068,45.000,0.00,0.10,-272.72,-272.78,-6,984,-4,22.7,18.9,-2.2,22.5,19.4,-2.0,5.73,1.95,-2.7,26.9
2015-06-17 01:38:00,0.0,1.88482,0.00031,399.252,0.029,0.6764,0.0036,140.002,45.000,34284.52805,1.89765,402.569,32.310,45.068,45.000,0.00,0.10,-272.72,-272.78,-6,984,-4,22.7,18.8,-2.2,22.5,19.4,-2.0,5.73,1.96,-2.7,26.9
2015-06-17 01:39:00,0.0,1.88485,0.00033,399.291,0.039,0.6732,0.0053,139.999,45.000,34283.39623,1.89765,402.593,32.306,45.068,45.000,0.00,0.10,-272.73,-272.78,-6,984,-4,22.7,18.7,-2.4,22.5,19.2,-2.2,5.73,1.97,-2.7,26.9
2015-06-17 01:40:00,0.0,1.88508,0.00044,399.319,0.049,0.6729,0.0072,139.998,45.000,34282.67209,1.89775,402.618,32.310,45.068,45.000,0.00,0.10,-272.73,-272.79,-6,984,-4,22.7,18.6,-2.4,22.5,19.2,-2.2,5.73,1.96,-2.7,26.9
2015-06-17 01:41:00,0.0,1.88527,0.00025,399.400,0.019,0.6604,0.0016,139.995,45.000,34280.88023,1.89778,402.638,32.313,45.068,45.000,0.00,0.10,-272.72,-272.79,-6,984,-4,22.7,18.3,-2.6,22.5,18.8,-2.4,5.73,1.96,-2.7,26.9
2015-06-17 01:42:00,0.0,1.88496,0.00035,399.352,0.038,0.6645,0.0057,139.996,45.000,34281.65842,1.89758,402.608,32.312,45.068,45.000,0.00,0.10,-272.72,-272.79,-6,984,-4,22.7,18.5,-2.5,22.5,18.9,-2.4,5.73,1.94,-2.7,26.9
2015-06-17 01:43:00,0.0,1.88454,0.00054,399.224,0.043,0.6850,0.0028,140.002,45.000,34284.55297,1.89751,402.587,32.313,45.068,45.000,0.00,0.10,-272.72,-272.79,-7,984,-4,22.7,19.0,-2.1,22.5,19.5,-2.0,5.73,1.94,-2.7,26.9
2015-06-17 01:44:00,0.0,1.88438,0.00050,399.225,0.035,0.6866,0.0062,140.001,45.000,34285.63790,1.89737,402.592,32.312,45.068,45.000,0.00,0.10,-272.72,-272.79,-7,983,-4,22.7,19.0,-2.1,22.5,19.6,-1.9,5.73,1.93,-2.7,26.9
2015-06-17 01:45:00,0.0,1.88511,0.00043,399.280,0.029,0.6749,0.0034,140.000,45.000,34284.05968,1.89788,402.590,32.310,45.068,45.000,0.00,0.10,-272.73,-272.78,-6,984,-4,22.7,18.7,-2.3,22.5,19.3,-2.1,5.73,1.92,-2.7,26.9
2015-06-17 01:46:00,0.0,1.88518,0.00036,399.288,0.027,0.6656,0.0051,139.997,45.000,34280.87903,1.89779,402.551,32.310,45.068,45.000,0.00,0.10,-272.73,-272.79,-6,984,-4,22.7,18.4,-2.5,22.5,19.0,-2.3,5.73,1.92,-2.7,26.9